Wind_Speed
6 7 7 7 2 10 18 22 8 2 8 6 2 2 8 7 8 4 11 6 15 13 13 13 12 13 15 17 13 11 10 11 12 13 15 17 18 19 20 19 19 18 17 17 18 18 19 20 21
9 9 8 8 12 19 22 12 13 7 8 1 3 5 7 3 2 8 1 7 17 15 14 12 12 12 14 15 12 9 9 10 11 13 14 16 18 19 19 20 20 19 19 18 19 20 19 21 22
8 11 7 6 15 25 19 9 13 16 14 7 4 3 6 3 4 0 10 15 18 16 18 12 12 13 13 13 11 8 8 9 10 11 12 14 16 18 21 22 24 23 21 20 19 20 21 22 22
9 10 9 16 20 24 18 8 6 9 10 6 4 6 2 13 5 8 11 15 19 16 18 17 14 13 13 10 8 7 6 7 9 10 11 13 16 18 20 22 25 25 21 21 20 19 19 20 21
12 9 15 18 21 20 17 17 4 8 6 8 6 2 4 8 13 13 16 11 15 20 18 17 17 15 14 10 7 8 7 7 10 10 12 15 17 19 20 21 25 26 22 18 18 18 21 21 19
14 11 15 22 22 20 18 16 17 15 13 13 13 12 5 6 5 6 14 13 15 14 24 18 19 18 16 15 13 13 11 11 12 13 13 16 19 22 24 23 24 28 24 21 19 19 19 20 22
18 15 21 21 23 22 17 12 15 16 16 14 5 9 2 7 9 13 18 15 14 16 24 19 19 20 21 20 18 19 17 16 16 16 16 17 19 22 25 24 24 26 26 23 22 22 21 20 21
19 19 25 26 27 25 20 17 17 14 16 11 14 10 11 10 15 14 9 10 20 21 20 23 24 24 25 21 21 22 23 22 20 19 19 20 20 22 25 25 25 26 25 24 22 22 22 22 20
18 25 30 26 25 24 20 20 19 18 14 14 6 9 12 17 21 20 15 14 13 17 29 32 31 23 25 24 22 23 25 28 27 24 22 23 24 25 25 28 27 28 29 24 22 21 19 21 20
27 32 34 25 24 25 22 22 20 18 18 19 18 19 20 18 15 22 16 17 19 17 20 33 32 40 35 28 25 24 26 29 29 27 26 26 26 27 27 32 31 31 29 25 25 22 20 18 19
30 41 30 29 26 26 26 28 23 29 28 26 21 24 23 25 27 29 26 23 23 20 22 27 35 40 40 31 26 25 26 30 29 28 28 27 27 29 30 29 30 33 33 27 26 23 21 21 20
35 39 36 34 32 33 32 32 35 34 36 32 32 32 29 29 28 26 25 24 24 24 26 29 34 39 39 36 31 27 25 28 31 30 29 30 32 31 29 27 28 33 33 28 29 25 24 22 23
42 38 35 36 36 38 37 39 41 42 40 37 36 35 35 35 34 29 24 25 25 28 31 34 33 36 39 36 33 31 29 30 33 31 25 30 36 34 31 29 29 30 29 28 28 25 23 23 22
42 40 40 39 41 43 44 46 43 44 40 38 37 39 38 36 35 31 28 28 31 31 37 40 36 38 42 43 32 32 31 32 33 30 24 29 34 34 32 30 29 30 28 27 25 23 23 23 23
40 46 48 51 48 49 45 53 49 42 40 41 42 41 38 37 35 36 31 28 32 33 40 42 37 37 44 42 32 33 32 33 36 30 29 36 32 29 31 30 31 30 30 26 24 23 20 22 22
42 45 55 54 50 55 46 58 52 41 37 38 37 37 39 37 30 27 33 33 33 37 44 39 33 35 32 31 31 35 35 35 34 32 37 35 32 29 30 30 29 28 28 26 24 23 21 22 21
44 46 51 55 51 48 44 48 50 44 41 42 40 36 37 37 36 36 30 32 32 38 39 40 31 32 27 29 31 35 37 35 33 37 34 34 32 30 30 29 28 26 26 25 24 21 26 22 25
44 47 55 50 41 38 42 45 47 42 39 43 40 42 35 38 39 38 39 34 30 40 39 35 25 27 27 29 33 34 33 33 35 33 31 32 32 31 31 31 25 24 24 24 24 27 27 25 23
40 50 51 45 37 36 38 43 47 43 41 42 41 40 41 39 37 37 36 40 32 39 37 30 27 28 29 30 29 30 31 31 28 27 27 28 30 31 31 26 24 24 24 25 22 21 24 24 21
45 48 48 45 36 35 37 40 42 42 41 40 38 40 35 36 38 33 34 33 40 34 35 28 26 26 27 27 27 27 29 24 20 23 25 25 28 27 24 25 24 23 23 19 19 16 11 10 13
47 50 45 46 35 39 38 41 42 43 42 39 37 37 37 38 40 44 37 33 37 35 29 25 24 21 21 20 21 24 21 18 16 19 24 26 25 23 25 22 19 17 15 13 11 11 10 9 11
48 45 38 38 34 40 32 30 46 43 40 38 35 34 35 34 33 31 31 33 30 30 25 17 15 17 15 15 15 14 12 13 17 19 22 25 24 22 17 15 14 13 10 9 10 9 8 10 10
57 33 36 36 40 36 36 31 59 30 33 28 29 32 32 31 28 27 24 31 30 28 22 16 16 14 13 14 11 11 10 14 17 18 22 19 17 18 16 12 9 8 8 8 7 8 8 10 10
36 38 36 37 37 26 43 37 51 37 35 32 31 33 32 28 25 22 30 31 29 27 20 16 13 12 12 12 10 9 11 15 17 17 16 15 16 16 11 6 7 7 6 6 6 7 7 8 8
42 38 25 24 23 23 34 38 45 39 31 29 31 29 23 20 19 27 25 27 27 23 17 14 12 11 12 10 8 12 11 14 14 14 12 13 14 9 5 6 5 3 5 1 4 5 6 8 9
46 47 27 24 17 21 38 34 45 44 30 21 15 16 11 15 28 25 23 25 24 19 15 12 11 11 10 8 10 10 11 12 10 9 10 11 8 4 6 5 1 0 3 8 7 4 5 8 9
38 52 48 37 34 24 29 33 41 29 25 23 13 12 13 19 20 22 22 17 16 16 12 10 10 10 9 9 9 9 10 10 7 8 9 8 4 4 3 2 3 4 5 3 2 4 3 3 5
43 35 46 41 25 22 27 35 27 18 25 19 19 17 21 18 17 22 18 14 16 14 10 11 10 7 7 7 8 9 9 7 4 7 6 5 3 2 2 2 4 3 1 1 2 3 3 4 7
41 45 45 40 33 16 14 20 15 17 14 6 16 19 24 18 18 19 16 15 16 13 11 10 7 6 6 7 8 9 4 4 4 4 3 2 2 2 4 4 3 3 1 2 2 2 4 4 3
46 40 37 32 34 35 27 28 5 10 10 9 14 22 25 20 19 15 13 15 15 13 10 8 6 5 5 6 6 5 2 4 3 3 1 1 3 5 7 5 3 2 3 1 2 1 2 4 5
Wind_Direction
206 189 188 191 215 240 251 255 257 221 243 223 296 301 335 343 339 7 339 335 334 322 321 332 334 343 347 353 346 345 358 4 14 14 13 11 7 359 353 343 331 318 304 289 276 266 263 259 253
195 176 186 146 241 249 253 246 252 212 99 36 305 289 297 259 30 53 267 291 314 321 313 317 319 330 339 353 347 340 345 350 4 3 3 3 1 359 353 347 338 322 308 296 286 276 265 259 259
197 185 144 248 244 251 273 245 286 232 264 287 307 249 272 90 210 283 284 315 307 331 314 302 305 317 329 343 351 343 342 338 344 344 346 349 349 350 350 347 341 330 316 301 289 280 276 266 259
191 197 205 229 254 254 270 315 232 193 234 256 272 283 257 213 214 240 310 316 300 320 329 305 297 301 312 327 346 351 351 336 319 321 329 336 341 342 340 341 343 336 321 306 298 295 283 274 269
213 175 247 249 258 267 265 272 214 243 261 269 284 269 228 234 245 263 303 322 297 294 335 313 295 291 295 304 313 321 313 307 306 309 314 328 333 336 336 334 339 339 326 311 297 278 273 271 268
211 223 244 249 256 259 266 277 271 280 279 266 262 270 290 316 148 319 323 323 309 259 291 320 298 292 285 285 290 294 290 295 300 307 316 329 334 337 336 332 334 340 328 314 302 292 288 276 261
208 221 244 253 262 267 263 281 276 278 277 273 290 185 215 202 273 292 296 315 311 299 267 324 299 293 286 277 282 289 288 293 299 305 316 324 330 334 336 332 331 337 328 317 304 293 287 284 272
227 239 252 253 260 266 274 291 278 279 270 263 254 218 269 267 340 334 327 306 307 298 280 278 303 308 288 280 274 281 286 291 295 299 309 316 321 326 331 331 330 328 327 320 309 294 285 284 278
232 245 247 245 252 261 269 275 283 267 259 256 264 246 258 279 286 281 291 285 280 291 289 281 287 299 292 284 273 272 277 284 290 296 301 309 317 317 322 325 327 331 330 318 313 297 286 280 278
224 231 239 244 250 263 262 265 272 270 277 259 270 272 282 277 291 290 282 280 279 280 288 289 279 296 300 285 276 269 273 278 281 290 295 303 308 313 313 327 330 330 328 319 315 300 287 280 278
232 239 240 248 251 258 270 265 274 273 271 270 262 280 272 280 281 281 280 281 279 278 276 299 279 284 286 285 280 273 275 278 276 282 288 296 302 306 316 323 323 327 327 321 315 299 283 278 274
239 241 245 251 253 261 265 270 275 277 278 273 273 279 274 285 278 275 274 268 265 271 271 273 286 278 280 285 279 275 271 273 280 280 283 297 299 305 310 316 319 321 321 318 314 311 299 290 287
239 245 247 251 255 259 268 270 277 275 274 271 272 271 273 278 278 279 273 275 273 270 274 279 284 276 274 274 274 278 274 277 279 276 281 306 302 299 303 310 314 318 315 312 310 307 294 290 288
244 250 251 253 257 261 263 269 273 271 272 272 272 273 274 272 278 277 271 270 274 273 281 291 298 261 262 266 270 275 280 282 281 277 278 291 293 293 300 307 309 313 307 301 303 300 290 284 282
249 253 255 253 256 259 265 270 267 270 269 269 269 271 272 272 271 272 267 269 274 281 285 297 294 260 256 262 264 270 274 275 276 270 267 281 284 289 296 304 306 311 306 301 301 295 286 285 283
248 251 257 253 254 254 259 265 266 263 268 268 271 272 271 273 265 271 263 259 278 286 291 299 285 275 266 258 261 269 274 275 272 260 259 274 285 289 296 301 304 304 298 297 295 288 287 285 278
239 245 247 253 249 257 254 262 265 265 264 265 268 270 268 268 267 267 264 275 284 292 290 296 290 275 270 263 265 270 272 277 262 258 263 272 283 289 294 298 303 297 294 295 290 285 288 278 276
225 234 241 251 252 254 250 255 264 266 263 265 268 266 265 270 265 267 268 264 277 284 285 292 281 271 271 269 270 270 269 268 262 255 262 277 287 292 298 301 300 291 294 291 286 280 283 276 264
235 240 247 253 252 253 254 259 265 267 266 267 268 261 269 268 272 275 264 279 273 277 279 276 275 274 271 271 266 267 272 273 258 258 268 279 288 295 299 300 295 295 296 289 286 283 275 276 255
237 245 250 256 253 257 261 262 265 263 262 264 264 267 270 268 267 271 276 278 277 273 276 269 266 268 265 265 271 274 269 261 257 264 274 283 289 299 300 299 294 292 291 286 284 282 274 256 252
236 239 245 251 257 259 264 268 267 263 263 264 263 266 267 268 268 258 264 273 270 272 271 263 256 257 262 272 278 276 265 263 268 277 285 291 306 306 302 294 295 294 291 286 267 262 256 246 246
238 235 244 251 252 256 257 268 263 265 264 263 265 267 269 272 274 272 268 259 264 267 263 249 256 262 268 280 278 262 251 260 268 275 289 308 307 302 297 297 293 292 277 271 261 255 250 246 243
239 238 242 248 250 258 256 259 263 263 266 264 265 265 267 268 268 257 247 258 257 261 256 259 261 258 277 268 253 242 248 259 278 287 291 298 297 298 306 304 296 284 284 275 252 244 246 242 228
242 240 244 249 253 249 245 246 264 262 266 272 272 272 270 263 257 252 247 244 245 254 252 255 247 268 266 256 235 247 264 276 286 289 290 295 302 300 299 309 303 295 289 271 251 241 232 208 201
229 234 233 240 236 244 246 245 256 265 265 268 274 273 273 247 246 233 226 227 245 245 249 237 253 261 248 239 253 276 279 281 278 288 292 303 304 293 302 309 299 309 290 204 157 165 184 210 222
221 227 222 219 221 240 245 250 259 253 258 265 276 243 249 233 212 207 222 239 240 240 222 239 249 245 241 258 270 276 278 273 276 273 294 314 301 298 298 289 262 316 144 124 125 147 231 239 228
234 221 225 242 235 249 246 240 255 252 246 245 246 222 204 205 201 217 226 233 221 210 222 236 237 237 257 265 275 275 272 275 274 288 316 315 303 282 285 256 172 122 139 144 183 251 282 256 216
228 224 222 229 232 242 234 248 269 206 229 234 224 208 199 208 226 215 215 220 216 210 222 227 229 250 263 268 274 269 271 270 290 298 315 309 299 283 183 181 173 149 130 294 293 340 335 224 264
224 230 220 231 225 235 248 258 260 194 196 217 206 194 202 217 207 206 214 223 213 217 221 225 249 259 261 280 274 277 283 306 318 317 297 297 252 183 154 163 167 121 144 269 351 33 38 80 95
225 223 222 220 221 227 245 247 217 201 221 204 204 190 201 213 199 201 219 218 216 219 223 234 254 252 267 278 269 283 311 359 359 294 316 171 203 166 146 146 159 222 179 194 325 311 100 121 98
Height
3162 3164 3165 3167 3173 3169 3162 3158 3157 3157 3159 3159 3160 3162 3162 3163 3163 3164 3161 3161 3162 3163 3162 3161 3161 3160 3158 3157 3155 3154 3153 3152 3152 3150 3150 3148 3147 3145 3144 3142 3141 3139 3138 3138 3138 3139 3140 3140 3141
3162 3163 3165 3165 3169 3164 3156 3157 3156 3159 3152 3160 3160 3160 3162 3163 3162 3161 3162 3162 3161 3162 3160 3159 3159 3158 3157 3156 3154 3153 3152 3151 3151 3150 3148 3147 3146 3144 3143 3142 3139 3138 3136 3135 3134 3134 3135 3136 3137
3162 3162 3164 3166 3165 3160 3156 3157 3156 3157 3159 3161 3160 3158 3159 3161 3161 3162 3161 3162 3159 3161 3159 3157 3156 3155 3154 3154 3153 3151 3151 3150 3150 3149 3147 3146 3145 3143 3141 3140 3138 3135 3133 3132 3131 3131 3130 3131 3132
3160 3162 3163 3160 3158 3157 3157 3158 3156 3155 3156 3158 3158 3158 3157 3157 3159 3160 3161 3160 3154 3158 3158 3155 3153 3153 3152 3152 3151 3150 3149 3148 3147 3146 3145 3144 3142 3141 3140 3138 3136 3134 3131 3129 3127 3127 3127 3127 3128
3159 3160 3163 3160 3157 3156 3156 3155 3150 3155 3155 3157 3157 3157 3154 3155 3154 3157 3158 3158 3155 3150 3153 3153 3151 3150 3150 3149 3149 3148 3147 3145 3144 3143 3143 3142 3140 3139 3137 3136 3133 3131 3128 3127 3126 3125 3124 3125 3125
3156 3158 3158 3156 3154 3154 3154 3153 3153 3153 3153 3154 3155 3158 3155 3153 3152 3154 3155 3156 3154 3152 3147 3151 3149 3148 3147 3147 3146 3145 3144 3143 3143 3142 3140 3138 3137 3135 3134 3133 3131 3127 3125 3124 3122 3122 3121 3120 3121
3151 3156 3156 3154 3153 3150 3151 3152 3153 3153 3152 3154 3152 3155 3159 3151 3150 3153 3152 3152 3153 3151 3143 3147 3147 3145 3144 3144 3143 3143 3142 3141 3141 3140 3138 3136 3135 3133 3132 3130 3128 3125 3123 3121 3119 3117 3117 3117 3117
3151 3155 3153 3151 3150 3148 3148 3150 3152 3152 3152 3149 3151 3153 3156 3153 3148 3148 3150 3152 3147 3144 3141 3136 3143 3143 3141 3141 3140 3139 3139 3138 3138 3137 3136 3134 3132 3131 3129 3127 3126 3123 3120 3117 3115 3113 3112 3112 3113
3150 3151 3147 3147 3148 3147 3148 3150 3150 3150 3148 3150 3151 3151 3152 3153 3151 3149 3150 3150 3151 3151 3139 3130 3132 3141 3140 3136 3135 3135 3135 3134 3134 3133 3132 3131 3129 3128 3125 3125 3122 3119 3116 3114 3112 3109 3108 3108 3108
3143 3141 3140 3144 3143 3144 3145 3146 3147 3147 3147 3147 3147 3148 3148 3149 3147 3145 3146 3147 3148 3148 3147 3133 3130 3125 3134 3133 3131 3130 3130 3129 3130 3129 3128 3127 3125 3124 3122 3116 3114 3113 3112 3110 3107 3105 3104 3104 3104
3139 3130 3137 3139 3141 3141 3141 3141 3142 3142 3144 3143 3142 3144 3144 3143 3142 3141 3141 3142 3142 3142 3142 3139 3129 3125 3123 3127 3126 3127 3125 3125 3124 3124 3124 3122 3122 3120 3116 3113 3110 3108 3106 3104 3102 3101 3100 3099 3100
3133 3129 3133 3135 3136 3136 3135 3137 3135 3136 3136 3139 3139 3139 3139 3136 3136 3136 3136 3136 3136 3136 3134 3134 3126 3123 3120 3118 3117 3121 3120 3120 3119 3119 3119 3119 3117 3114 3112 3110 3106 3103 3101 3099 3097 3094 3092 3093 3093
3121 3124 3129 3129 3131 3130 3131 3129 3129 3128 3132 3131 3131 3132 3131 3131 3130 3130 3130 3130 3129 3127 3126 3125 3123 3118 3114 3114 3113 3111 3114 3114 3114 3114 3115 3113 3112 3109 3107 3105 3103 3101 3097 3095 3092 3091 3090 3089 3089
3118 3121 3120 3122 3123 3123 3124 3122 3125 3123 3126 3125 3125 3124 3124 3125 3124 3123 3124 3122 3122 3119 3118 3116 3115 3110 3109 3110 3109 3108 3106 3105 3105 3106 3106 3107 3105 3104 3102 3099 3098 3097 3094 3092 3089 3087 3085 3085 3085
3114 3113 3112 3110 3116 3113 3120 3109 3113 3117 3119 3117 3118 3117 3117 3117 3117 3116 3116 3116 3114 3112 3110 3107 3105 3102 3102 3104 3105 3104 3102 3101 3099 3100 3099 3098 3100 3100 3098 3095 3091 3090 3087 3086 3083 3082 3082 3081 3080
3104 3107 3097 3100 3109 3102 3116 3098 3105 3110 3111 3109 3110 3110 3109 3109 3109 3108 3107 3107 3106 3105 3102 3099 3097 3092 3095 3097 3100 3099 3097 3096 3094 3095 3092 3093 3094 3095 3093 3090 3087 3083 3082 3080 3078 3077 3077 3077 3076
3092 3089 3089 3089 3096 3101 3103 3096 3095 3102 3103 3100 3101 3101 3101 3101 3101 3100 3099 3100 3101 3098 3093 3091 3090 3086 3089 3091 3093 3094 3091 3091 3089 3087 3088 3089 3090 3089 3088 3084 3080 3078 3076 3074 3072 3071 3071 3072 3072
3076 3083 3074 3080 3091 3093 3092 3090 3087 3092 3094 3092 3092 3092 3092 3091 3092 3092 3092 3093 3094 3090 3088 3086 3085 3083 3084 3086 3086 3086 3085 3084 3083 3084 3084 3084 3083 3082 3080 3077 3074 3073 3070 3068 3067 3065 3066 3066 3065
3077 3073 3071 3076 3082 3085 3085 3083 3078 3084 3085 3083 3084 3083 3082 3085 3087 3086 3083 3085 3084 3082 3082 3080 3079 3079 3079 3080 3080 3080 3079 3079 3078 3079 3080 3080 3079 3076 3073 3070 3068 3066 3064 3063 3061 3059 3059 3059 3060
3067 3066 3066 3071 3076 3079 3076 3073 3072 3074 3074 3076 3076 3076 3075 3077 3078 3078 3077 3077 3074 3075 3075 3074 3074 3075 3075 3075 3075 3075 3073 3074 3075 3075 3075 3076 3074 3070 3067 3065 3062 3060 3058 3057 3056 3055 3055 3054 3057
3056 3055 3063 3064 3073 3070 3069 3066 3064 3064 3066 3067 3067 3068 3068 3067 3068 3068 3070 3070 3068 3069 3069 3068 3069 3071 3071 3071 3070 3068 3069 3069 3071 3072 3070 3069 3067 3065 3062 3059 3056 3055 3053 3053 3052 3052 3052 3053 3054
3046 3052 3062 3062 3067 3056 3068 3054 3050 3056 3057 3058 3059 3059 3058 3058 3059 3061 3064 3060 3063 3063 3064 3064 3065 3066 3066 3066 3065 3065 3066 3067 3068 3068 3064 3063 3061 3060 3058 3055 3053 3051 3050 3050 3050 3050 3050 3051 3052
3029 3058 3055 3056 3055 3058 3058 3056 3019 3049 3048 3051 3052 3051 3051 3052 3053 3055 3057 3054 3057 3059 3060 3061 3061 3062 3062 3062 3062 3063 3064 3064 3064 3063 3060 3060 3058 3055 3053 3051 3050 3049 3048 3048 3048 3048 3049 3050 3050
3042 3046 3050 3050 3050 3045 3041 3050 3019 3041 3043 3044 3044 3043 3043 3043 3046 3048 3047 3049 3052 3055 3057 3057 3058 3058 3058 3059 3060 3061 3061 3060 3060 3059 3059 3056 3054 3052 3050 3049 3047 3047 3047 3046 3047 3047 3047 3049 3051
3033 3038 3040 3043 3037 3023 3038 3038 3025 3033 3036 3037 3035 3035 3035 3037 3040 3037 3042 3045 3049 3051 3053 3054 3055 3055 3056 3057 3057 3057 3058 3057 3056 3056 3054 3053 3051 3049 3048 3046 3046 3046 3046 3046 3046 3047 3048 3049 3050
3022 3026 3024 3023 3021 3022 3031 3022 3019 3022 3028 3029 3029 3028 3029 3031 3033 3035 3040 3043 3045 3048 3050 3052 3053 3053 3054 3054 3054 3054 3054 3054 3054 3053 3052 3050 3048 3047 3046 3045 3045 3046 3045 3045 3047 3048 3048 3047 3049
3012 3016 3016 3022 3020 3020 3012 3013 3011 3017 3020 3023 3025 3026 3028 3027 3031 3035 3037 3040 3042 3045 3047 3049 3050 3051 3051 3051 3051 3051 3051 3051 3051 3050 3049 3047 3046 3045 3045 3045 3046 3045 3046 3047 3047 3047 3047 3047 3047
3004 3011 3014 3014 3014 3010 3010 3009 3005 3007 3012 3016 3019 3023 3023 3024 3029 3032 3035 3038 3040 3043 3045 3047 3048 3047 3048 3048 3048 3049 3049 3048 3048 3047 3046 3046 3045 3044 3045 3045 3046 3046 3046 3047 3047 3047 3047 3048 3048
2998 2996 3003 3010 3010 3007 3007 3003 3001 3000 3007 3011 3014 3019 3020 3023 3026 3030 3033 3036 3039 3041 3043 3045 3045 3045 3046 3046 3046 3046 3046 3045 3045 3044 3045 3044 3045 3045 3045 3046 3047 3046 3047 3047 3047 3048 3048 3048 3048
2993 2992 2996 2997 3001 3006 3007 3002 2998 3000 3004 3009 3012 3015 3017 3022 3025 3028 3032 3034 3037 3040 3042 3042 3042 3043 3044 3044 3044 3044 3043 3043 3044 3044 3044 3044 3044 3045 3046 3046 3047 3047 3047 3049 3049 3049 3049 3049 3049